Showing default

IRIDE FM2, 66696

Orbit data source: Space-Track

IRIDE FM2, 66696 is an Italian payload satellite in SSO that was launched on Fri, 28 Nov 2025 UTC via an FALCON 9 launch vehicle from the Air Force Western Test Range (AFWTR). Payload-class satellites include a variety of spacecraft equipped with specific instruments for various scientific and technological missions. These include communications satellites like Starlink; space stations such as the ISS; scientific satellites like the Hubble; Earth observation satellites from companies like Planet Labs, Umbra, and HawkEye 360; GPS; miniature CubeSats for education and research; and military/defense satellites.

Loading next visibility...
Identifier
66696, 2025-276AG
Orbit
SSO
Country
Flag of ITIT
Related business
Manufacturer
OHB-I
Mission
Operational Commercial Technology
Bus & Motor
EAGLET, Unknown motor
Mass
25 kg wet, 25 kg dry
Launch date (UTC)
2025-11-28 (2 months ago)
Launch vehicle
FALCON 9
Launch site
Air Force Western Test Range (AFWTR)
Object type
Payload
Rocket body
Debris
Shape & HBR
Box + 2 Pan, 1.0 m
Radar Cross Section
0.368 m²

Expand to show TLE details & history
Last TLE update: 1 day ago

TLE from 1 day ago
0 IRIDE FM2
1 66696U 25276AG  26034.15514047  .00011026  00000-0  54135-3 0  9998
2 66696  97.4323 109.9824 0005029 116.8522 243.3227 15.18237175 10078
Epoch: 2026-02-03T03:43Z
TLE epoch observation values (Epoch: 2026-02-03T03:43:24.136Z)
Latitude
-0°
Longitude
-79.2083°
Altitude
515.813 km
Speed
7.605 km/s
True Right ascension
07h 19m 55s
True Declination
0° 00' 00"
Sunlit
Object was in full shadow at epoch
Visualization orbit readout
Latitude
Unknown
Longitude
Unknown
Altitude
Unknown
Speed
Unknown
Apparent Right ascension
Unknown
Apparent Declination
Unknown
Sunlit
N/A
Visualization observer readout
Local Sidereal Time
05:36:06
Azimuth
Unknown
Elevation
Unknown
Doppler factor
Unknown
Orbital elements
Apogee altitude
511.601 km
Perigee altitude
504.674 km
Semi-major axis
6,886.275 km
Eccentricity
0.0005
Inclination
97.4323°
RAAN
109.9824°
Arg. of periapsis
116.8522°
True anomaly
243.27122°
Mean anomaly
243.3227°
Eccentric anomaly
243.29696°
Mean motion
3.7981 °/min
Orbital period
94.78 mins
BSTAR
0.00054135
Loading maneuver chart data...
Computing Atmospheric mass density...
Loading historical data...
Loading historical data...
Loading historical data...
Loading historical data...
Loading historical data...
Loading historical data...
Loading historical data...

Documentation

Showing up to 5 results
|